Preview of NWS' New Version of Forecast
This preview is not operational and should not be used for support decisions.

Regional Weather Roundup (RWR)

Issued by National Weather Service (NWS)

                            
000
ASUS45 KABQ 241901
RWRNM 
NEW MEXICO REGIONAL WEATHER ROUNDUP
NATIONAL WEATHER SERVICE ALBUQUERQUE NM
100 PM MDT MON JUN 24 2019

NOTE: "FAIR" MEANS FEW OR NO CLOUDS BELOW 12,000 FEET AGL WITH NO
       SIGNIFICANT WEATHER OR OBSTRUCTIONS TO VISION.

      THIS PRODUCT IS RELEASED AS TWO VERSIONS.  ONE VERSION NEAR
      THE TOP OF THE HOUR CONTAINING PRELIMINARY DATA FROM ALBUQUERQUE
      AND OTHER STATIONS.  A FINAL VERSION WITH ADDITIONAL DATA IS 
      ISSUED ABOUT 10 MINUTES AFTER THE HOUR.
 
NMZ501-503-504-510>518-242000-
NORTHWEST PLATEAU/NORTHCENTRAL MOUNTAINS
  
CITY           SKY/WX    TMP DP  RH WIND       PRES   REMARKS
FARMINGTON     FAIR      78  26  14 W8        30.10F                  
LOS ALAMOS       N/A     69  28  20 S6        30.21F                  
SANTA FE       FAIR      74  28  18 VRB5      30.15F                  
TAOS           FAIR      70  24  17 S9        30.20F                  

$$
NMZ402-403-502-505>509-242000-
WESTCENTRAL MOUNTAINS/SOUTHWEST MOUNTAINS
  
CITY           SKY/WX    TMP DP  RH WIND       PRES   REMARKS
GALLUP         FAIR      78  20  11 VRB3G20   30.17F                  
GRANTS         FAIR      77  20  12 E6        30.18F                  
SILVER CITY    FAIR      84  19   9 S8        30.10F                  

$$
NMZ407-409-411-412-242000-
SOUTHERN DESERTS
  
CITY           SKY/WX    TMP DP  RH WIND       PRES   REMARKS
DEMING         FAIR      89  16   7 SW5       30.04F                  
LAS CRUCES     FAIR      88  20   8 S5        30.06F                  
HOLLOMAN AFB   FAIR      89  23   9 CALM      30.04F                  
ALAMOGORDO     FAIR      86  23  10 SE3       30.03F                  
T OR C         FAIR      88  12   6 SE9       30.06F                  

$$
NMZ519>523-242000-
CENTRAL VALLEYS/CENTRAL HIGHLANDS
  
CITY           SKY/WX    TMP DP  RH WIND       PRES   REMARKS
ALBUQUERQUE    FAIR      78  25  14 VRB3      30.11F                  
DOUBLE EAGLE   SUNNY     75  28  17 CALM      30.14F                  
MORIARTY ARPT  FAIR      77  30  18 CALM      30.16F                  
CLINES CORNERS FAIR      74  29  19 NW10      30.20                   
BELEN          FAIR      79  21  11 CALM      30.11F                  
SOCORRO        NOT AVBL                                               

$$
NMZ524>526-539-540-242000-
SOUTHCENTRAL MOUNTAINS
  
CITY           SKY/WX    TMP DP  RH WIND       PRES   REMARKS
RUIDOSO        FAIR      75  27  16 S10G21    30.21F                  

$$
NMZ527>531-242000-
NORTHEAST HIGHLANDS/NORTHEAST PLAINS
  
CITY           SKY/WX    TMP DP  RH WIND       PRES   REMARKS
LAS VEGAS      FAIR      74  34  23 S10G29    30.15F                  
RATON          FAIR      77  34  21 SW15G22   30.09F                  
CLAYTON        FAIR      77  43  29 SW17G24   30.06F                  

$$
NMZ532>537-242000-
EASTCENTRAL PLAINS
  
CITY           SKY/WX    TMP DP  RH WIND       PRES   REMARKS
SANTA ROSA     FAIR      78  45  30 SE8       30.07F                  
TUCUMCARI      FAIR      83  50  31 S9G18     30.01F                  
CANNON AFB     FAIR      80  52  37 SW7       30.06F                  
CLOVIS AIRPORT   N/A     80  50  34 S10       30.07F                  

$$
NMZ028-029-538-242000-
SOUTHEAST PLAINS
  
CITY           SKY/WX    TMP DP  RH WIND       PRES   REMARKS
ROSWELL        FAIR      87  45  23 VRB5      30.01F                  
ARTESIA        FAIR      84  46  26 CALM      30.02F                  
CARLSBAD       FAIR      88  40  18 N10       29.97F                  
HOBBS          SUNNY     88  52  29 NE8       30.00F                  


$$